STARLINK-33579, 62764

Orbit data source: Space-Track

STARLINK-33579, 62764 is a payload satellite owned by SpaceX/Seattle (US) in LEO that was launched on Tue, 21 Jan 2025 UTC via an FALCON 9 launch vehicle from the Air Force Western Test Range (AFWTR). Payload-class satellites include a variety of spacecraft equipped with specific instruments for various scientific and technological missions. These include communications satellites like Starlink; space stations such as the ISS; scientific satellites like the Hubble; Earth observation satellites from companies like Planet Labs, Umbra, and HawkEye 360; GPS; miniature CubeSats for education and research; and military/defense satellites.

Loading next visibility...
Identifier
62764, 2025-015G
Orbit
LEO
Country
Flag of USUS
Related business
Manufacturer
SpaceX/Seattle
Mission
Operational Commercial Communications
Bus & Motor
STARLINK V2MO, Unknown motor
Mass
575 kg wet, ~530 kg dry
Launch date (UTC)
2025-01-21 (8 months ago)
Launch vehicle
FALCON 9
Launch site
Air Force Western Test Range (AFWTR)
Object type
Payload
Rocket body
Debris
Shape & HBR
Box + 1 Pan, 14.5 m
Radar Cross Section
41.120 m², Large (>1 m²)

Expand to show TLE details & history
Last TLE update: 1 day ago

TLE from 1 day ago
0 STARLINK-33579
1 62764U 25015G   25251.83720356  .00021999  00000-0  75252-3 0  9991
2 62764  53.1575  86.7923 0000879  68.5482 291.5613 15.30206460 36648
Epoch: 2025-09-08T20:05Z
TLE epoch observation values (Epoch: 2025-09-08T20:05:34.387Z)
Latitude
0.00002°
Longitude
157.26244°
Altitude
475.874 km
Speed
7.629 km/s
True Right ascension
05h 47m 10s
True Declination
0° 00' 00"
Sunlit
Object was in daylight at epoch
Visualization orbit readout
Latitude
Unknown
Longitude
Unknown
Altitude
Unknown
Speed
Unknown
Apparent Right ascension
Unknown
Apparent Declination
Unknown
Sunlit
N/A
Visualization observer readout
Local Sidereal Time
15:06:08
Azimuth
Unknown
Elevation
Unknown
Doppler factor
Unknown
Orbital elements
Apogee altitude
476.055 km
Perigee altitude
474.85 km
Semi-major axis
6,853.59 km
Eccentricity
0.00009
Inclination
53.1575°
RAAN
86.7923°
Arg. of periapsis
68.5482°
True anomaly
291.55193°
Mean anomaly
291.5613°
Eccentric anomaly
291.55662°
Mean motion
3.8253 °/min
Orbital period
94.11 mins
BSTAR
0.00075252
Loading maneuver chart data...
Computing Atmospheric mass density...
Loading historical data...
Loading historical data...
Loading historical data...
Loading historical data...
Loading historical data...
Loading historical data...
Loading historical data...

Documentation

Showing up to 5 results
|